Weather History for Houghton, MI

Change the Weather History Date:

Sunday, December 18, 2011

  Actual Average Record
Temperature  
Mean Temperature 30 °F -  
Max Temperature 37 °F 24 °F 43 °F (1967)
Min Temperature 24 °F 13 °F -5 °F (1980)
Degree Days  
Heating Degree Days 34    
Moisture  
Dew Point 23 °F    
Average Humidity 74    
Maximum Humidity 85    
Minimum Humidity 64    
Precipitation  
Precipitation 0.00 in - - ()
Sea Level Pressure  
Sea Level Pressure 29.79 in    
Wind  
Wind Speed 10 mph (SW)    
Max Wind Speed 28 mph    
Max Gust Speed 36 mph    
Visibility 10 miles    
Events      
Averages and records for this station are not official NWS values.
T = Trace of Precipitation, MM = Missing Value Source: NWS Daily Summary

Daily Weather History Graph

Daily Weather History Graph

Search for Another Location

Airport:

Trip Planner

Search our weather history database for the weather conditions in past years. The results will help you decide how hot, cold, wet, or windy it might be!

Date:

Astronomy

Dec. 18, 2011 Rise Set
Actual Time 8:35 AM EST 5:05 PM EST
Civil Twilight 8:00 AM EST 5:40 PM EST
Nautical Twilight 7:21 AM EST 6:19 PM EST
Astronomical Twilight 6:43 AM EST 6:57 PM EST
Moon 1:15 AM EST (12/18) 12:49 PM EST (12/18)
Length of Visible Light 9h 40m
Length of Day
8h 29m
Last Quarter, 42% of the Moon is Illuminated
Dec 18
Last Quarter
Dec 24
New
Jan 1
First Quarter
Jan 9
Full
Jan 16
Last Quarter

Hourly Weather History & Observations

Time (EST) Temp. Windchill Dew Point Humidity Pressure Visibility Wind Dir Wind Speed Gust Speed Precip Events Conditions
12:53 AM 27.0 °F 18.0 °F 19.9 °F 75% 30.03 in 10.0 mi WNW 9.2 mph - N/A   Overcast
1:53 AM 27.0 °F 21.6 °F 19.9 °F 75% 30.03 in 10.0 mi West 4.6 mph - N/A   Overcast
2:53 AM 27.0 °F 16.7 °F 19.9 °F 75% 30.03 in 10.0 mi West 11.5 mph - N/A   Overcast
3:53 AM 26.6 °F 16.8 °F 21.2 °F 80% 29.96 in 10.0 mi West 10.4 mph - N/A   Overcast
4:53 AM 28.0 °F 19.3 °F 21.0 °F 75% 30.00 in 10.0 mi WSW 9.2 mph - N/A   Overcast
5:53 AM 28.0 °F 21.7 °F 21.0 °F 75% 30.00 in 10.0 mi WSW 5.8 mph - N/A   Overcast
6:53 AM 26.1 °F 17.6 °F 21.0 °F 81% 30.00 in 10.0 mi SSW 8.1 mph - N/A   Overcast
7:53 AM 25.0 °F 16.3 °F 21.0 °F 85% 30.00 in 10.0 mi SSW 8.1 mph - N/A   Overcast
8:53 AM 24.8 °F 14.0 °F 19.4 °F 80% 29.91 in 10.0 mi South 11.5 mph - N/A   Overcast
9:20 AM 24.8 °F 15.3 °F 19.4 °F 80% 29.91 in 10.0 mi SSW 9.2 mph - N/A   Overcast
9:53 AM 24.8 °F 14.6 °F 19.4 °F 80% 29.89 in 10.0 mi SSW 10.4 mph - N/A   Overcast
10:53 AM 25.0 °F 15.5 °F 19.9 °F 81% 29.91 in 10.0 mi South 9.2 mph - N/A   Partly Cloudy
11:53 AM 26.1 °F 15.6 °F 19.9 °F 78% 29.87 in 10.0 mi SSW 11.5 mph - N/A   Overcast
12:53 PM 28.0 °F 18.6 °F 21.0 °F 75% 29.81 in 10.0 mi South 10.4 mph - N/A   Overcast
1:53 PM 30.0 °F 21.1 °F 21.0 °F 69% 29.75 in 10.0 mi South 10.4 mph - N/A   Mostly Cloudy
2:53 PM 32.0 °F 24.2 °F 21.2 °F 64% 29.65 in 10.0 mi SSE 9.2 mph - N/A   Partly Cloudy
3:53 PM 33.1 °F 25.5 °F 23.0 °F 66% 29.65 in 10.0 mi South 9.2 mph - N/A   Clear
4:53 PM 34.0 °F 28.0 °F 24.1 °F 67% 29.60 in 10.0 mi SSE 6.9 mph - N/A   Overcast
5:53 PM 35.1 °F 30.1 °F 25.0 °F 67% 29.58 in 10.0 mi South 5.8 mph - N/A   Partly Cloudy
6:53 PM 36.0 °F 29.6 °F 26.1 °F 67% 29.57 in 10.0 mi SSW 8.1 mph - N/A   Clear
7:53 PM 36.0 °F 29.6 °F 26.1 °F 67% 29.55 in 10.0 mi WSW 8.1 mph - N/A   Clear
8:53 PM 37.9 °F 30.0 °F 27.0 °F 65% 29.54 in 10.0 mi West 12.7 mph - N/A   Clear
9:53 PM 37.0 °F 27.4 °F 28.0 °F 70% 29.53 in 10.0 mi West 17.3 mph - N/A   Clear
10:53 PM 37.0 °F 25.6 °F 28.9 °F 73% 29.53 in 10.0 mi West 24.2 mph - N/A   Clear
11:53 PM 37.9 °F 26.1 °F 30.9 °F 76% 29.53 in 10.0 mi West 27.6 mph 35.7 mph N/A   Clear